Regional Weather Roundup
Issued by NWS Northern Indiana

Home | Current Version | Previous Version | Graphics & Text | Print | Product List | Glossary On
Versions: 1 2 3 4 5 6 7 8 9 10 11 12 13 14 15 16 17 18 19 20 21 22 23 24 25 26 27 28 29 30 31 32 33 34 35 36 37 38 39 40 41 42 43 44 45 46 47 48 49 50
548
ASUS43 KIWX 181200
RWRIWX

KIWX WEATHER ROUNDUP
NATIONAL WEATHER SERVICE NORTHERN INDIANA
700 AM EST WED JAN 18 2017

NOTE: "FAIR" INDICATES FEW OR NO CLOUDS BELOW 12,000 FEET WITH NO
SIGNIFICANT WEATHER AND/OR OBSTRUCTIONS TO VISIBILITY.

* THESE STATIONS ARE NOT UNDER NWS QUALITY CONTROL. THEY ALSO MAY NOT
  REPORT WEATHER SUCH AS PRECIPITATION OR FOG.

INZ001>027-181300-
NORTHERN INDIANA

CITY           SKY/WX    TMP DP  RH WIND       PRES   REMARKS
GARY*          CLOUDY    36  34  93 W12G23    30.12R FOG
SOUTH BEND     CLOUDY    33  33 100 W9        30.09R FOG     WCI  25
6HR MIN TEMP:  33; 6HR MAX TEMP:  34;

ELKHART*       DRIZZLE   34  32  93 W6        30.08  WCI  29
GOSHEN         CLOUDY    34  31  88 W13       30.08R FOG     WCI  25
6HR MIN TEMP:  34; 6HR MAX TEMP:  35;

FORT WAYNE     DRIZZLE   35  32  88 W16       30.10R FOG     WCI  25
6HR MIN TEMP:  35; 6HR MAX TEMP:  36; 6HR PCP: TRACE;

PERU/GRISSOM   CLOUDY    34  34 100 W12       30.10S WCI  25
6HR MIN TEMP:  34; 6HR MAX TEMP:  35; 6HR PCP: TRACE;


$$
INZ028>050-181300-
CENTRAL INDIANA

CITY           SKY/WX    TMP DP  RH WIND       PRES   REMARKS
LAFAYETTE      CLOUDY    34  33  96 W12       30.15R WCI  25
6HR MIN TEMP:  34; 6HR MAX TEMP:  36;

KOKOMO*        CLOUDY    34  33  96 W14       30.14R WCI  25
6HR MIN TEMP:  34; 6HR MAX TEMP:  36; 6HR PCP: TRACE;

MUNCIE*        CLOUDY    37  34  89 W12       30.12R
6HR MIN TEMP:  36; 6HR MAX TEMP:  38; 6HR PCP:  0.01;

INDIANAPOLIS   DRIZZLE   36  34  92 W12       30.15R
6HR MIN TEMP:  36; 6HR MAX TEMP:  37; 6HR PCP: TRACE;


$$
MIZ043>046-050>051-056>058-064>065-071>073-077>080-181300-
SOUTHWEST LOWER MICHIGAN

CITY           SKY/WX    TMP DP  RH WIND       PRES   REMARKS
BATTLE CREEK   CLOUDY    36  35  96 W9        30.03R FOG
6HR MIN TEMP:  35; 6HR MAX TEMP:  36; 6HR PCP: TRACE;

BENTON HARBOR  CLOUDY    36  34  92 W12       30.08R FOG
6HR MIN TEMP:  36; 6HR MAX TEMP:  37;

COLDWATER*     CLOUDY    35  35 100 W8        30.04R FOG     WCI  28
6HR MIN TEMP:  35; 6HR MAX TEMP:  35;

HILLSDALE*     CLOUDY    32  32 100 W9        30.02R FOG     WCI  24
HOLLAND        CLOUDY    36  34  92 W8        30.05R
6HR MIN TEMP:  36; 6HR MAX TEMP:  37;

GRAND RAPIDS   FOG       35  34  96 W10       30.02R VSB 3/4 WCI  27
6HR MIN TEMP:  35; 6HR MAX TEMP:  36;

KALAMAZOO      CLOUDY    36  33  89 W7        30.05R FOG
6HR MIN TEMP:  36; 6HR MAX TEMP:  36; 6HR PCP: TRACE;

STURGIS*       CLOUDY    34  33  98 W9        30.05R FOG     WCI  26
6HR MIN TEMP:  34; 6HR MAX TEMP:  35;

THREE RIVERS*  CLOUDY    35  35  99 W5        30.07R FOG     WCI  31
6HR MIN TEMP:  35; 6HR MAX TEMP:  35;


$$
OHZ001>008-015>018-024>025-181300-
NORTHWEST OHIO

CITY           SKY/WX    TMP DP  RH WIND       PRES   REMARKS
DEFIANCE       CLOUDY    36  33  89 W7        30.08R FOG
6HR MIN TEMP:  36; 6HR MAX TEMP:  38;

FINDLAY        CLOUDY    37  33  85 W14       30.06R
6HR MIN TEMP:  37; 6HR MAX TEMP:  41;

TOLEDO EXPRESS CLOUDY    35  35 100 W14       30.05R WCI  26
6HR MIN TEMP:  35; 6HR MAX TEMP:  38; 6HR PCP:  0.01;

TOLEDO METCALF CLOUDY    37  35  92 W15       30.06R
6HR MIN TEMP:  37; 6HR MAX TEMP:  40; 6HR PCP: TRACE;

LIMA           CLOUDY    36  34  92 W15       30.08R
6HR MIN TEMP:  36; 6HR MAX TEMP:  39;


$$
AND FOR LAKE MICHIGAN COASTAL AND OPEN LAKE BUOY OBSERVATIONS

STATION/POSITION TEMP    WIND        PRES    VSBY  WAVE
                 AIR SEA DIR/SP/G                  HT/PER
                 (F)     (DEG/KT/KT) (MB)    (MI)  (FT/S)
CALUMET HARBOR    35     240/  5/  8 1018.7
BURNS HARBOR      34     260/ 13/ 15 1020.0R

$$
&&




USA.gov is the U.S. government's official web portal to all federal, state and local government web resources and services.